KUIPER-00148 (65769 NORAD) Tracking and Keplerian Element Data

This shows tracking and keplerian element data for the satellite.

Feedback or suggestion? Click here.




ElementValue
Catalog65769
NameKUIPER-00148
Epoch Orbit562
Epoch Day354.25003472
Epoch Year2025
RAAN32.6902
Inclination51.8755
Eccentricity0.0009234
Argument of Perigee72.7075
Mean Anonmoly63.1269
Mean Motion15.11543689
Decay Rate-0.00037413
L11 65769U 25217H 25354.25003472 -.00037413 00000+0 -21715-2 0 9999
L22 65769 51.8755 32.6902 0009234 72.7075 63.1269 15.11543689 5627



Live tracking and technical data element details for KUIPER-00148 (NORAD 65769). KUIPER-00148 can be tracked NOW for your location showing map with azimuth and elevation plus other details from your city location.







IsCatalogInMostPopularTable: catalog: 65769, numindb: 4
Update: records affected: 1



GetName: 65769 KUIPER-00148

Hit Count: updated at: Wed, 15 Apr 2026 01:01:46 GMT